[[[{"header":{"parameterUnit":"kt","parameterCategory":2,"dx":1,"dy":1,"la1":30.253999710083008,"la2":30.299108505249023,"lo1":-89.0895004272461,"lo2":-89.04439544677734,"nx":28,"ny":28,"refTime":"2022-10-26T21:00:00:Z","depth":0,"parameterNumber":1,"parameterNumberName":"U-component_of_WINDS"},"data":[-0.6671,-0.6683,-0.6671,-0.6679,-0.667,-0.6673,-0.6671,-0.6666,-0.6659,-0.6661,-0.666,-0.6649,-0.6638,-0.6634,-0.6632,-0.6627,-0.6628,-0.664,-0.6633,-0.659,-0.6583,-0.6577,-0.6574,-0.664,-0.664,-0.668,-0.668,-0.668,-0.6639,-0.663,-0.6631,-0.6624,-0.6624,-0.6605,-0.6598,-0.66,-0.6603,-0.6595,-0.6594,-0.6595,-0.6594,-0.6578,-0.6575,-0.658,-0.6572,-0.658,-0.6581,-0.658,-0.6533,-0.653,-0.6587,-0.6587,-0.6587,-0.6587,-0.6587,-0.6587,-0.6577,-0.6584,-0.6574,-0.6575,-0.6568,-0.6563,-0.6568,-0.6555,-0.6556,-0.6552,-0.6538,-0.6542,-0.6532,-0.6523,-0.6517,-0.6519,-0.6508,-0.6514,-0.6516,-0.6519,-0.6523,-0.6468,-0.6518,-0.6518,-0.6518,-0.6518,-0.6517,0,-0.6529,-0.6519,-0.6519,-0.6516,-0.6516,-0.6512,-0.6507,-0.651,-0.6485,-0.6487,-0.6488,-0.6487,-0.6484,-0.6484,-0.6479,-0.6472,-0.6455,-0.6451,-0.6455,-0.6464,-0.6471,-0.6469,-0.6394,-0.645,-0.645,-0.6449,-0.6449,-0.6449,-0.6467,-0.6477,-0.6461,-0.6462,-0.6457,-0.646,-0.646,-0.6437,-0.6438,-0.6428,-0.6436,-0.6435,-0.6434,-0.6437,-0.6423,-0.6421,-0.6413,-0.6436,-0.6413,-0.6419,-0.6415,-0.6416,-0.6417,-0.6442,-0.6443,-0.6444,-0.6444,0,-0.6434,-0.6416,-0.6428,-0.6411,-0.6407,-0.6418,-0.6404,-0.641,-0.6397,-0.6404,-0.6404,-0.6385,-0.6387,-0.6368,-0.6367,-0.6357,-0.6375,-0.6366,-0.6378,-0.6376,-0.6396,-0.6395,-0.6461,-0.6469,-0.6399,-0.6399,-0.64,0,-0.6375,-0.6389,-0.6362,-0.637,-0.6384,-0.6362,-0.6376,-0.6367,-0.6359,-0.6364,-0.634,-0.6346,-0.6322,-0.6324,-0.6311,-0.6322,-0.6321,-0.6315,-0.6312,-0.6319,-0.632,-0.6321,-0.6318,-0.6302,-0.6302,-0.6301,-0.6301,0,-0.6327,-0.6328,-0.634,-0.6338,-0.6322,-0.6328,-0.6322,-0.6313,-0.6313,-0.6309,-0.6309,-0.6307,-0.6306,-0.6304,-0.6287,-0.6272,-0.63,-0.6276,-0.6294,-0.6295,-0.6304,-0.6304,-0.6364,-0.6301,-0.6301,-0.63,-0.63,0,-0.6278,-0.6275,-0.6296,-0.6282,-0.6283,-0.6291,-0.6288,-0.6291,-0.6283,-0.6275,-0.6272,-0.6255,-0.6263,-0.6241,-0.6251,-0.6237,-0.6237,-0.6232,-0.6233,-0.6235,-0.6211,-0.625,-0.6307,-0.6314,-0.6233,-0.6232,-0.6232,0,-0.6227,-0.6243,-0.6225,-0.6245,-0.625,-0.6224,-0.6232,-0.6226,-0.6216,-0.6219,-0.6208,-0.6211,-0.6191,-0.619,-0.6197,-0.6186,-0.6204,-0.6183,-0.6188,-0.6188,-0.6193,-0.6245,-0.6259,-0.6296,-0.6224,-0.6225,-0.6226,0,-0.6187,-0.6168,-0.6173,-0.617,-0.6159,-0.6163,-0.6173,-0.6171,-0.6174,-0.617,-0.6178,-0.6181,-0.6166,-0.6165,-0.6152,-0.616,-0.6191,-0.6143,-0.6143,-0.6154,-0.6219,-0.6232,-0.6239,-0.618,-0.6181,-0.6182,-0.622,0,-0.6119,-0.6125,-0.6137,-0.6132,-0.6132,-0.6143,-0.6126,-0.6128,-0.6115,-0.6105,-0.6116,-0.6107,-0.6106,-0.6108,-0.6096,-0.6122,-0.6115,-0.6099,-0.6078,-0.6112,-0.6125,-0.6129,-0.6061,-0.606,-0.606,-0.6059,0,0,-0.6077,-0.6085,-0.6066,-0.6075,-0.6074,-0.6049,-0.6062,-0.6059,-0.6053,-0.6053,-0.604,-0.6046,-0.6039,-0.6055,-0.6064,-0.6063,-0.6066,-0.6056,-0.6096,-0.61,-0.6104,-0.6117,-0.6123,-0.6058,-0.6058,-0.6058,-0.6058,0,-0.6049,-0.6043,-0.6057,-0.6052,-0.6045,-0.6034,-0.6037,-0.6026,-0.602,-0.6031,-0.601,-0.6014,-0.602,-0.6016,-0.6015,-0.6052,-0.6038,-0.6053,-0.608,-0.609,-0.6095,-0.6099,-0.6114,-0.6119,-0.6056,-0.6056,-0.6056,0,-0.6007,-0.5999,-0.6004,-0.6001,-0.5997,-0.6003,-0.5975,-0.5983,-0.5988,-0.596,-0.5972,-0.5965,-0.5958,-0.5975,-0.5982,-0.5971,-0.6013,-0.5996,-0.6,-0.6001,-0.601,-0.6016,-0.6021,-0.5952,-0.5951,-0.5951,0,0,-0.5986,-0.5992,-0.5977,-0.5994,-0.5992,-0.5977,-0.5978,-0.5966,-0.5961,-0.5959,-0.5951,-0.5946,-0.5949,-0.5951,-0.5953,-0.5973,-0.5971,-0.5984,-0.5989,-0.5993,-0.5997,-0.6007,-0.6013,-0.595,-0.595,-0.595,0,0,-0.5976,-0.596,-0.5948,-0.5966,-0.5962,-0.5949,-0.596,-0.5946,-0.5946,-0.5943,-0.5923,-0.5921,-0.5936,-0.593,-0.5917,-0.5946,-0.5925,-0.5928,-0.5949,-0.5955,-0.596,-0.5962,-0.589,0,0,0,0,0,-0.594,-0.5961,-0.5951,-0.5951,-0.5949,-0.5954,-0.5954,-0.5938,-0.5924,-0.5933,-0.5923,-0.5907,-0.5919,-0.5907,-0.5908,-0.5924,-0.5936,-0.5938,-0.5941,-0.5973,-0.598,-0.5985,0,0,0,0,0,0,-0.594,-0.5941,-0.595,-0.5938,-0.5938,-0.5953,-0.5925,-0.5922,-0.5922,-0.5919,-0.5909,-0.5907,-0.5894,-0.5906,-0.5907,-0.5922,-0.589,-0.5937,-0.5939,-0.5941,-0.5976,-0.5981,-0.5985,0,0,0,0,0,-0.594,-0.5941,-0.5941,-0.5938,-0.5937,-0.5922,-0.5924,-0.5921,-0.5921,-0.5907,-0.5904,-0.5909,-0.5894,-0.5894,-0.5906,-0.5922,-0.5889,-0.5889,-0.5938,-0.594,-0.5941,-0.5978,0,0,0,0,0,0,-0.594,-0.5938,-0.5941,-0.594,-0.5929,-0.592,-0.5918,-0.5921,-0.5909,-0.5906,-0.5906,-0.5904,-0.5895,-0.5895,-0.5895,-0.5923,-0.5888,-0.5888,-0.5889,-0.5939,-0.5941,-0.5942,0,0,0,0,0,0,-0.5937,-0.5937,-0.594,-0.593,-0.5928,-0.5919,-0.5918,-0.5926,-0.5909,-0.5909,-0.5906,-0.5905,-0.5895,-0.5896,-0.5895,-0.5909,-0.5887,-0.5888,-0.5888,-0.5888,-0.5941,-0.5942,0,0,0,0,0,0,-0.5937,-0.5937,-0.593,-0.5928,-0.5926,-0.5917,-0.5926,-0.5925,-0.59,-0.591,-0.5897,-0.5896,-0.5897,-0.5896,-0.5896,-0.591,-0.5909,-0.5887,-0.5888,-0.5888,-0.5888,0,0,0,0,0,0,0,-0.5937,-0.5941,-0.5945,-0.5927,-0.5925,-0.5933,-0.5932,-0.5932,-0.59,-0.5899,-0.5898,-0.5897,-0.5885,-0.5885,-0.5886,-0.591,0,0,-0.5887,-0.5888,0,0,0,0,0,0,0,0,-0.594,-0.5941,-0.5945,-0.5945,-0.5945,-0.5933,-0.5932,-0.5932,-0.59,-0.5899,-0.5898,-0.5897,-0.5885,-0.5885,-0.5886,0,0,0,0,0,0,0,0,0,0,0,0,0,0,0,-0.5945,-0.5945,0,-0.5933,-0.5932,-0.5932,-0.59,-0.5899,-0.5898,-0.5897,-0.5885,-0.5886,-0.5886,0,0,0,0,0,0,0,0,0,0,0,0,0,0,0,0,0,0,0,0,0,0,0,0,0,0,0,0,0,0,0,0,0,0,0,0,0,0,0,0,0,0,0,0,0,0,0,0,0,0,0,0,0,0,0,0,0,0,0,0,0,0,0,0,0,0,0,0,0]}],[{"header":{"parameterUnit":"kt","parameterCategory":2,"dx":1,"dy":1,"la1":30.253999710083008,"la2":30.299108505249023,"lo1":-89.0895004272461,"lo2":-89.04439544677734,"nx":28,"ny":28,"refTime":"2022-10-26T21:00:00:Z","depth":0,"parameterNumber":2,"parameterNumberName":"V-component_of_WINDS"},"data":[-11.1032,-11.1189,-11.1215,-11.1404,-11.1458,-11.1591,-11.1646,-11.1719,-11.1782,-11.1939,-11.2033,-11.207,-11.2138,-11.2252,-11.2352,-11.2365,-11.2407,-11.2446,-11.2454,-11.2262,-11.2237,-11.2213,-11.218,-11.2454,-11.2454,-11.2651,-11.2653,-11.2655,-11.0892,-11.0949,-11.1056,-11.1177,-11.1269,-11.1248,-11.134,-11.1417,-11.1534,-11.1612,-11.1705,-11.1844,-11.1954,-11.2009,-11.2118,-11.2188,-11.2182,-11.2216,-11.2212,-11.2223,-11.2018,-11.1982,-11.2219,-11.2219,-11.2219,-11.2219,-11.2219,-11.2219,-11.0644,-11.0737,-11.0826,-11.0942,-11.1009,-11.1088,-11.118,-11.1225,-11.1327,-11.1447,-11.1452,-11.1583,-11.1662,-11.1802,-11.1853,-11.1953,-11.1919,-11.1962,-11.1973,-11.1984,-11.1995,-11.1711,-11.1972,-11.1971,-11.1971,-11.197,-11.197,0,-11.0471,-11.0487,-11.0591,-11.0703,-11.0789,-11.0876,-11.0959,-11.1016,-11.1049,-11.1132,-11.1252,-11.1324,-11.1465,-11.1578,-11.1683,-11.1727,-11.1709,-11.1708,-11.1737,-11.1739,-11.1728,-11.1738,-11.1405,-11.17,-11.1697,-11.1696,-11.1695,-11.1694,-11.0225,-11.0329,-11.0432,-11.0502,-11.0554,-11.0664,-11.0734,-11.0757,-11.0829,-11.0932,-11.101,-11.1124,-11.1217,-11.14,-11.1445,-11.1549,-11.154,-11.1651,-11.1555,-11.1553,-11.1545,-11.154,-11.1551,-11.167,-11.1673,-11.1675,-11.1677,0,-11.0085,-11.0124,-11.0292,-11.0382,-11.0407,-11.0514,-11.0589,-11.0679,-11.0711,-11.0839,-11.087,-11.0919,-11.1033,-11.1061,-11.1195,-11.1206,-11.1378,-11.1366,-11.1353,-11.1353,-11.1456,-11.1447,-11.1784,-11.183,-11.1543,-11.1546,-11.1548,0,-10.9891,-11.0025,-11.0076,-11.0171,-11.032,-11.034,-11.0486,-11.0528,-11.0597,-11.0698,-11.0683,-11.0778,-11.0798,-11.0895,-11.0911,-11.1056,-11.108,-11.1097,-11.11,-11.11,-11.1098,-11.1137,-11.1125,-11.1099,-11.1097,-11.1096,-11.1094,0,-10.9668,-10.9851,-11.0006,-11.0053,-11.016,-11.0231,-11.0278,-11.0355,-11.0422,-11.0512,-11.0556,-11.0658,-11.0714,-11.0792,-11.0812,-11.0746,-11.0989,-11.0902,-11.1006,-11.1006,-11.1059,-11.1056,-11.1347,-11.1092,-11.1092,-11.1091,-11.109,0,-10.9517,-10.9614,-10.9831,-10.9921,-10.9967,-11.0067,-11.0172,-11.0264,-11.0345,-11.0363,-11.0433,-11.0426,-11.0554,-11.0467,-11.0643,-11.0552,-11.0608,-11.0635,-11.0643,-11.0657,-11.0559,-11.0722,-11.0995,-11.1025,-11.0669,-11.0665,-11.0662,0,-10.9254,-10.9483,-10.9502,-10.9706,-10.9816,-10.9795,-10.9906,-10.9978,-11.0011,-11.0107,-11.014,-11.0247,-11.0188,-11.0225,-11.0308,-11.0347,-11.0464,-11.0331,-11.0466,-11.047,-11.0449,-11.0699,-11.0735,-11.0932,-11.0617,-11.0622,-11.0626,0,-10.9054,-10.9185,-10.922,-10.9275,-10.9377,-10.9467,-10.9593,-10.9705,-10.9768,-10.9849,-10.9956,-11.0104,-11.0066,-11.0127,-11.013,-11.0216,-11.0385,-11.0162,-11.0164,-11.0203,-11.0596,-11.063,-11.0663,-11.0368,-11.0374,-11.0378,-11.059,0,-10.8822,-10.894,-10.9036,-10.9157,-10.9231,-10.9359,-10.9392,-10.9465,-10.9463,-10.9495,-10.9649,-10.9712,-10.9822,-10.9865,-10.9862,-11.0048,-11.0021,-10.9978,-10.9896,-11.0059,-11.013,-11.0159,-10.9788,-10.9786,-10.9784,-10.9782,0,0,-10.856,-10.8731,-10.8746,-10.8871,-10.8935,-10.8911,-10.9045,-10.9103,-10.9219,-10.9263,-10.9218,-10.9437,-10.9489,-10.9673,-10.9726,-10.9769,-10.9805,-10.9746,-10.9981,-11.0003,-11.0023,-11.0098,-11.0128,-10.9779,-10.9778,-10.9778,-10.9777,0,-10.8483,-10.8544,-10.8677,-10.874,-10.8832,-10.8859,-10.8891,-10.8977,-10.9003,-10.9154,-10.9128,-10.9223,-10.9396,-10.9456,-10.9509,-10.9725,-10.9699,-10.9755,-10.9863,-10.996,-10.9985,-11.0007,-11.0085,-11.0113,-10.9772,-10.9773,-10.9773,0,-10.8294,-10.836,-10.8427,-10.8571,-10.8631,-10.8742,-10.8665,-10.8785,-10.8867,-10.8828,-10.8978,-10.9017,-10.9098,-10.9266,-10.9342,-10.9302,-10.9601,-10.951,-10.9523,-10.9532,-10.9628,-10.9657,-10.9683,-10.9338,-10.9336,-10.9335,0,0,-10.8222,-10.8332,-10.8407,-10.8557,-10.8596,-10.8638,-10.87,-10.8704,-10.8781,-10.8811,-10.8861,-10.8933,-10.9034,-10.91,-10.9195,-10.9375,-10.9393,-10.9456,-10.9476,-10.9493,-10.9511,-10.9611,-10.964,-10.9329,-10.9329,-10.9329,0,0,-10.8187,-10.8282,-10.8267,-10.8446,-10.8522,-10.8603,-10.8692,-10.8675,-10.8765,-10.8754,-10.8763,-10.8783,-10.894,-10.8978,-10.8893,-10.9166,-10.9084,-10.9104,-10.9136,-10.9163,-10.9183,-10.9171,-10.882,0,0,0,0,0,-10.8125,-10.827,-10.8257,-10.8292,-10.8471,-10.8611,-10.8634,-10.8648,-10.859,-10.8661,-10.8699,-10.8667,-10.8935,-10.886,-10.8892,-10.8987,-10.925,-10.9264,-10.9277,-10.9361,-10.9388,-10.9411,0,0,0,0,0,0,-10.8139,-10.8182,-10.8253,-10.834,-10.8381,-10.8606,-10.8512,-10.852,-10.8583,-10.8575,-10.8661,-10.867,-10.8681,-10.8844,-10.8873,-10.8962,-10.881,-10.9256,-10.9268,-10.9278,-10.937,-10.9393,-10.9412,0,0,0,0,0,-10.815,-10.8185,-10.8469,-10.8338,-10.8373,-10.8427,-10.8507,-10.8513,-10.8561,-10.8621,-10.8628,-10.8566,-10.8683,-10.8709,-10.8861,-10.8949,-10.879,-10.8801,-10.9264,-10.9273,-10.9281,-10.9381,0,0,0,0,0,0,-10.8158,-10.8189,-10.8477,-10.8488,-10.8285,-10.8414,-10.8435,-10.8506,-10.8602,-10.8612,-10.8526,-10.8518,-10.8687,-10.8706,-10.8725,-10.8944,-10.8774,-10.8785,-10.8792,-10.9271,-10.9278,-10.9284,0,0,0,0,0,0,-10.8171,-10.8199,-10.8482,-10.8414,-10.8418,-10.8403,-10.8421,-10.8551,-10.8604,-10.8502,-10.8499,-10.8521,-10.8656,-10.8704,-10.8719,-10.8922,-10.8762,-10.8772,-10.8779,-10.8784,-10.9277,-10.9282,0,0,0,0,0,0,-10.8183,-10.8207,-10.8411,-10.8414,-10.8417,-10.8541,-10.8517,-10.8699,-10.855,-10.8498,-10.8536,-10.853,-10.8656,-10.8671,-10.8716,-10.8912,-10.8919,-10.8762,-10.8769,-10.8774,-10.8777,0,0,0,0,0,0,0,-10.8193,-10.8029,-10.8412,-10.8414,-10.8416,-10.859,-10.8593,-10.8596,-10.8548,-10.8543,-10.8538,-10.8533,-10.8702,-10.8713,-10.8725,-10.8904,0,0,-10.8761,-10.8766,0,0,0,0,0,0,0,0,-10.8019,-10.8027,-10.8412,-10.8414,-10.8417,-10.8591,-10.8593,-10.8595,-10.8547,-10.8543,-10.8539,-10.8535,-10.8705,-10.8714,-10.8723,0,0,0,0,0,0,0,0,0,0,0,0,0,0,0,-10.8412,-10.8414,0,-10.8591,-10.8593,-10.8595,-10.8547,-10.8543,-10.854,-10.8536,-10.8707,-10.8715,-10.8723,0,0,0,0,0,0,0,0,0,0,0,0,0,0,0,0,0,0,0,0,0,0,0,0,0,0,0,0,0,0,0,0,0,0,0,0,0,0,0,0,0,0,0,0,0,0,0,0,0,0,0,0,0,0,0,0,0,0,0,0,0,0,0,0,0,0,0,0,0]}]]]